Regional Weather Roundup
Issued by NWS

Home | Current Version | Previous Version | Text Only | Print | Product List | Glossary Off
Versions: 1 2 3 4 5 6 7 8 9 10 11 12 13 14 15 16 17 18 19 20 21 22 23 24 25 26 27 28 29 30 31 32 33 34 35 36 37 38 39 40 41 42 43 44 45 46 47 48 49 50

000
ASUS45 KTFX 230804
RWRMT
MONTANA HOURLY WEATHER ROUNDUP
NATIONAL WEATHER SERVICE GREAT FALLS MT
204 AM MDT WED APR 23 2014

NOTE: "FAIR" INDICATES FEW OR NO CLOUDS BELOW 12000 FEET WITH NO
SIGNIFICANT WEATHER AND/OR OBSTRUCTIONS TO VISIBILITY.

* THESE STATIONS ARE NOT UNDER NWS QUALITY CONTROL. THEY DO NOT
   REPORT WEATHER SUCH AS PRECIPITATION OR FOG.

MTZ001>007-043-230900-
WEST OF THE DIVIDE
CITY           SKY/WX    TMP DP  RH WIND       PRES   REMARKS
KALISPELL      CLOUDY    39  28  65 S8        29.71S WCI  33
MISSOULA       CLOUDY    39  28  65 W12       29.80R WCI  32
BUTTE          LGT SNOW  30  25  82 NW16G28   29.71R WCI  19
MULLAN PASS    MOCLDY    25  21  85 SW9G18    29.74R WCI  16
* ESSEX        N/A       35  33  92 SE2        N/A
* LINCOLN      N/A       35  31  85 S8G24      N/A   WCI  28
* LOOKOUT PASS N/A       33  23  67 SE9        N/A   WCI  25
* POLSON       N/A       36  31  82 SE2G7      N/A
* RONAN APT    CLOUDY    41  30  65 S8         N/A
* SEELEY LAKE  N/A       35  32  89 S1         N/A
* THOMP F APT  CLOUDY    33  33 100 S7G12      N/A   WCI  27
$$

MTZ008-052>055-230900-
SOUTHWEST MONTANA
CITY           SKY/WX    TMP DP  RH WIND       PRES   REMARKS
BOZEMAN        CLOUDY    39  36  89 W13       29.65R WCI  31
DILLON         SNOW      32  30  92 W12       29.69R VSB 1/2  WCI  23
W YELLOWSTONE  N/A       32  31  96 SW5G16     N/A   WCI  27
* THREE FORKS  CLOUDY    39  39 100 SW6        N/A   WCI  35
* BOULDER HILL N/A       33  19  56 SE1G14     N/A
* MONIDA PASS  N/A       30  30 100 NW11G17    N/A   WCI  21
* RAYNOLDS PAS N/A       31  14  49 SE14       N/A   WCI  21
* WHITEHALL    N/A       39  33  79 W11G18     N/A   WCI  32
* WISE RIVER   N/A       31  26  82 NW13G21    N/A   WCI  21
$$

MTZ009>010-012-014-046-048-049-054-230900-
EAST SLOPES AND CENTRAL MONTANA
CITY           SKY/WX    TMP DP  RH WIND       PRES   REMARKS
CUT BANK       CLOUDY    39  34  82 W29G35    29.52S WCI  27
GREAT FALLS    LGT RAIN  43  39  86 W13       29.56F
HELENA         CLOUDY    39  28  65 W24G31    29.66R WCI  28
MALMSTROM AFB  LGT RAIN  43  37  79 SW7       29.54S
* CONRAD       CLOUDY    43  37  79 SW8        N/A
* DEARBORN     N/A       42  32  68 S3G13      N/A
* EAST GLACIER N/A       34  28  79 W22G29     N/A   WCI  22
* MONARCH      N/A       34  31  89 W11        N/A   WCI  26
* PENDROY      N/A       40  27  60 NW15G20    N/A   WCI  32
* ROGERS PASS  N/A       30  27  89 SE13G24    N/A   WCI  20
* SAINT MARY   N/A       36  23  59 S10G26     N/A   WCI  29
* SWEET GRASS  N/A       41  37  86 SW19G26    N/A
$$

MTZ011-013-016-021-035-040-045-047-050-051-230900-
NORTH CENTRAL MONTANA
CITY           SKY/WX    TMP DP  RH WIND       PRES   REMARKS
HAVRE          LGT RAIN  46  43  89 W16       29.49R
LEWISTOWN      CLOUDY    39  39 100 NW13      29.53R WCI  31
* DENTON       N/A       42  38  86 NW17G23    N/A
* GEYSER       N/A       40  39  96 W19G24     N/A   WCI  31
* JUDITH GAP   N/A       39  39 100 N19G30     N/A   WCI  29
* LOMA         N/A       45  40  83 W22G28     N/A
$$

MTZ017>020-022>027-061-062-230900-
NORTHEAST MONTANA
CITY           SKY/WX    TMP DP  RH WIND       PRES   REMARKS
GLASGOW        MOCLDY    55  30  39 E29G37    29.34F
GLENDIVE       CLOUDY    54  32  43 E18G28    29.43F
JORDAN         MOCLDY    55  36  49 SW6G20    29.35R
SIDNEY         CLOUDY    55  32  42 E22G30    29.48F
WOLF POINT     CLOUDY    57  30  36 E22G30    29.42F
* BEAVER HILL  N/A       52  33  48 E27G35     N/A
* CIRCLE       N/A       55  35  47 E16G23     N/A
* LINDSAY DVD  N/A       49  31  50 E12G19     N/A
* NAVAJO       N/A       50  31  48 SE20G27    N/A
* SACO         N/A       56  32  40 E18G24     N/A
$$

MTZ028>042-056>058-230900-
SOUTHCENTRAL AND SOUTHEAST MONTANA
CITY           SKY/WX    TMP DP  RH WIND       PRES   REMARKS
BAKER          CLOUDY    52  36  55 E15       29.42F
BILLINGS       CLOUDY    50  37  61 W18G31    29.46R
LIVINGSTON     CLOUDY    41 N/A N/A W28G33    29.57R
MILES CITY     CLOUDY    55  37  51 NE9       29.32F
* LAUREL APT   CLOUDY    52  34  50 W25G36     N/A
* ROUNDUP APT  CLOUDY    52  39  61 W18        N/A
* HYSHAM       N/A       58  36  44 W3         N/A
* LAME DEER    N/A       58  41  53 S11        N/A
* REED POINT   N/A       46  35  66 W30G42     N/A
* ROSCOE HILL  N/A       50  23  35 SW14G29    N/A
$$

REGIONAL REPORTS...DAKOTAS
CITY           SKY/WX    TMP DP  RH WIND       PRES   REMARKS
WILLISTON      CLOUDY    52  34  50 E25G40    29.51F
DICKINSON      CLOUDY    52  34  50 E18G28    29.53F
CROSBY         PTCLDY    48  32  54 E22G31    29.62F
TIOGA          FAIR      48  32  54 SE25G33   29.63F
WATFORD CITY   FAIR      54  32  43 E24G32    29.51F
BISMARCK       CLOUDY    52  39  61 SE24G31   29.70S
GRAND FORKS    PTCLDY    45  27  49 SE12      29.95F
FARGO          CLOUDY    46  28  50 SE13      29.94F
BUFFALO SD     CLOUDY    52  39  61 E14       29.38F
RAPID CITY     MOCLDY    54  45  72 SE13      29.51F
$$

REGIONAL REPORTS...WYOMING/IDAHO/WASHINGTON
CITY           SKY/WX    TMP DP  RH WIND       PRES   REMARKS
GILLETTE       PTCLDY    50  43  77 S12       29.45S
SHERIDAN       MOCLDY    64  34  33 SW21G36   29.39R
CODY           CLOUDY    52  27  38 W16G22    29.49R
YELLOWSTONE LA PTCLDY    30  27  89 VRB5      29.69F WCI  25
SALMON         CLOUDY    36  27  70 CALM      29.82R
MULLAN PASS    MOCLDY    25  21  85 SW9G18    29.74S WCI  16
SPOKANE        CLEAR     37  25  62 SW12      29.81S WCI  29
$$

REGIONAL REPORTS...ALBERTA
CITY           SKY/WX    TMP DP  RH WIND       PRES   REMARKS
MEDICINE HAT   CLOUDY    46  45  96 SW13      29.44S
EDMONTON       LGT RAIN  52  37  57 E16G23    29.36F

$$




USA.gov is the U.S. government's official web portal to all federal, state and local government web resources and services.